Flag Weather past 2 weeks in Saint Helier, Jersey, United Kingdom

Now
54 °F

Clear.


Feels Like: 49 °F
Forecast: N/A
Wind: 14 mph from East

Location: Jersey Airport

Current Time: Nov 28, 2014 at 9:13:51 PM

Latest Report: Nov 28, 2014 at 8:50 PM


Visibility: 10 mi

Pressure: 29.50 "Hg

Humidity: 88%

Dew point: 50 °F

Location of Saint HelierLocation

Historic Weather in Saint Helier — Graph

°F

Saint Helier temperature yesterday

Maximum temperature yesterday: 52 °F (at 9:20 AM)
Minimum temperature yesterday: 46 °F (at 5:50 AM)
Average temperature yesterday: 50 °F

Past Weeks' High & Low Weather Summary

 TemperatureHumidityPressure
High57 °F (Nov 14, 3:50 AM)100% (Nov 15, 6:20 AM)30.27 "Hg (Nov 15, 6:20 AM)
Low45 °F (Nov 16, 6:50 PM)71% (Nov 24, 8:50 AM)29.39 "Hg (Nov 14, 3:50 AM)
Average51 °F93%29.78 "Hg
* Reported Nov 13 7:20 PM — Nov 28 7:50 PM, Saint Helier, Weather by CustomWeather, © 2014

Note: Actual official high and low records may vary slightly from our data, if they occured in-between our weather recording intervals... More about our weather records

Advertising

Saint Helier weather history for previous 24 hours

 ConditionsComfort  
Time TempWeatherWind HumidityBarometerVisibility
7:50 PM
Nov 28
54 °FClear.13 mph88%29.50 "Hg10 mi
7:20 PM54 °FClear.18 mph94%29.50 "Hg10 mi
6:50 PM54 °FClear.15 mph94%29.47 "Hg10 mi
6:20 PM55 °FClear.20 mph82%29.47 "Hg10 mi
5:50 PM54 °FClear.18 mph94%29.47 "Hg10 mi
5:20 PM55 °FClear.16 mph82%29.45 "Hg10 mi
4:50 PM55 °FClear.17 mph82%29.45 "Hg10 mi
4:20 PM54 °FClear.14 mph88%29.45 "Hg10 mi
3:50 PM55 °FSunny.22 mph82%29.42 "Hg10 mi
3:20 PM55 °FSunny.15 mph82%29.42 "Hg10 mi
2:50 PM55 °FSunny.15 mph88%29.39 "Hg10 mi
2:20 PM55 °FSunny.15 mph88%29.39 "Hg10 mi
1:50 PM57 °FSunny.18 mph77%29.39 "Hg10 mi
1:20 PM55 °FSunny.20 mph88%29.39 "Hg10 mi
12:50 PM55 °FSunny.17 mph82%29.39 "Hg10 mi
12:20 PM54 °FPassing clouds.16 mph88%29.39 "HgN/A
11:50 AM54 °FSunny.17 mph88%29.39 "Hg10 mi
11:20 AM52 °FPassing clouds.16 mph94%29.39 "HgN/A
10:50 AM52 °FPassing clouds.17 mph94%29.39 "HgN/A
10:20 AM52 °FPassing clouds.21 mph94%29.39 "HgN/A
9:50 AM52 °FPassing clouds.18 mph94%29.39 "HgN/A
9:20 AM50 °FPassing clouds.18 mph94%29.39 "HgN/A
8:50 AM50 °FPassing clouds.20 mph94%29.39 "HgN/A
8:20 AM50 °FPassing clouds.22 mph94%29.39 "HgN/A
7:50 AM50 °FPassing clouds.25 mph94%29.39 "HgN/A
7:20 AM50 °FPassing clouds.23 mph94%29.39 "HgN/A
6:50 AM50 °FPassing clouds.25 mph94%29.39 "HgN/A
6:20 AM50 °FClear.23 mph94%29.39 "Hg10 mi
5:50 AM50 °FClear.17 mph94%29.39 "Hg10 mi
5:20 AM48 °FClear.20 mph100%29.39 "Hg10 mi
4:50 AM48 °FClear.21 mph100%29.39 "Hg10 mi
4:20 AM50 °FClear.18 mph94%29.39 "Hg10 mi
10:20 PM
Nov 27
52 °FPassing clouds.15 mph88%29.42 "HgN/A
9:50 PM50 °FPassing clouds.17 mph94%29.42 "HgN/A
9:20 PM52 °FPassing clouds.17 mph94%29.45 "HgN/A
Weather by CustomWeather, © 2014

See weather overviewHow to use our weather pages